[[{"header":{"parameterUnit":"m.s-1","parameterCategory":1,"la1":30.2991,"la2":30.254,"lo1":-89.0895,"lo2":-89.0444,"dy":0.0017,"dx":0.0017,"nx":28,"ny":28,"refTime":"2025-04-01T09:00:00:Z","depth":0,"parameterNumber":2,"parameterNumberName":"U-component_of_WINDS"},"data":[0,0,0,0,0,0,0,0,0,0,0,0,0,0,0,0,0,0,0,0,0,0,0,0,0,0,0,0,0,0,0,0,0,0,0,0,0,0,0,0,0,0,0,0,0,0,0,0,0,0,0,0,0,0,0,0,0,0,-5.1678,-5.1679,0,-5.1782,-5.1783,-5.1785,-5.1749,-5.1746,-5.1744,-5.1742,-5.1846,-5.1851,-5.1856,0,0,0,0,0,0,0,0,0,0,0,0,0,-5.1447,-5.1451,-5.1678,-5.1679,-5.1681,-5.1782,-5.1783,-5.1785,-5.1749,-5.1746,-5.1744,-5.1741,-5.1845,-5.1851,-5.1857,0,0,0,0,0,0,0,0,0,0,0,0,0,-5.1549,-5.1453,-5.1678,-5.1675,-5.1676,-5.1782,-5.1783,-5.1785,-5.175,-5.1746,-5.1743,-5.174,-5.1843,-5.185,-5.1857,-5.1971,0,0,-5.188,-5.1883,0,0,0,0,0,0,0,0,-5.1543,-5.1557,-5.1674,-5.1675,-5.1677,-5.1749,-5.174,-5.1848,-5.1751,-5.1722,-5.1742,-5.1738,-5.1817,-5.1826,-5.1853,-5.1976,-5.1981,-5.188,-5.1885,-5.1888,-5.189,0,0,0,0,0,0,0,-5.1536,-5.1553,-5.1719,-5.1676,-5.1677,-5.1668,-5.1679,-5.176,-5.1787,-5.1724,-5.1722,-5.1735,-5.1817,-5.1846,-5.1855,-5.1982,-5.188,-5.1887,-5.1891,-5.1894,-5.2204,-5.2207,0,0,0,0,0,0,-5.1529,-5.1547,-5.1716,-5.1722,-5.16,-5.1675,-5.1687,-5.1729,-5.1786,-5.1791,-5.1737,-5.1732,-5.1835,-5.1847,-5.1859,-5.1994,-5.1888,-5.1895,-5.1899,-5.22,-5.2204,-5.2209,0,0,0,0,0,0,-5.1524,-5.1544,-5.1712,-5.1634,-5.1655,-5.1683,-5.173,-5.1733,-5.1762,-5.1796,-5.1801,-5.1762,-5.1833,-5.1848,-5.1944,-5.1997,-5.1898,-5.1905,-5.2195,-5.2201,-5.2206,-5.2267,0,0,0,0,0,0,-5.1517,-5.1542,-5.1586,-5.1635,-5.1659,-5.1795,-5.1734,-5.1738,-5.1775,-5.177,-5.1821,-5.1826,-5.1831,-5.1933,-5.1951,-5.2006,-5.1911,-5.219,-5.2198,-5.2205,-5.2261,-5.2274,-5.2286,0,0,0,0,0,-5.1509,-5.1599,-5.1589,-5.1609,-5.1714,-5.1798,-5.1812,-5.1817,-5.178,-5.1823,-5.1846,-5.1824,-5.199,-5.1943,-5.1963,-5.2021,-5.2187,-5.2196,-5.2204,-5.2255,-5.2272,-5.2286,0,0,0,0,0,0,-5.1554,-5.1605,-5.1594,-5.1703,-5.1747,-5.1792,-5.1847,-5.1835,-5.1889,-5.1882,-5.1885,-5.1897,-5.1994,-5.2018,-5.1965,-5.2134,-5.2083,-5.2096,-5.2114,-5.2131,-5.2143,-5.2134,-5.1917,0,0,0,0,0,-5.1577,-5.1641,-5.1683,-5.1774,-5.1797,-5.1819,-5.1855,-5.1856,-5.1901,-5.1919,-5.1948,-5.1992,-5.2054,-5.2094,-5.2153,-5.2265,-5.2275,-5.2315,-5.2328,-5.2338,-5.2348,-5.2408,-5.2426,-5.2237,-5.2237,-5.2236,0,0,-5.1624,-5.166,-5.17,-5.1784,-5.1818,-5.1884,-5.1834,-5.1906,-5.1955,-5.193,-5.202,-5.2044,-5.2094,-5.2198,-5.2245,-5.222,-5.2404,-5.2349,-5.2357,-5.2362,-5.2419,-5.2437,-5.2453,-5.2242,-5.2241,-5.224,0,0,-5.1742,-5.1777,-5.1857,-5.1892,-5.1945,-5.1959,-5.1979,-5.2027,-5.2041,-5.2134,-5.2116,-5.2174,-5.2281,-5.2316,-5.2349,-5.2483,-5.2465,-5.2503,-5.2568,-5.2627,-5.2641,-5.2655,-5.27,-5.2717,-5.2514,-5.2514,-5.2514,0,-5.1793,-5.1892,-5.1899,-5.1972,-5.2009,-5.1992,-5.2072,-5.2106,-5.2175,-5.22,-5.2173,-5.2306,-5.2338,-5.245,-5.2483,-5.2511,-5.2531,-5.2495,-5.2639,-5.2652,-5.2665,-5.2708,-5.2726,-5.2518,-5.2517,-5.2517,-5.2516,0,-5.1952,-5.2021,-5.2079,-5.2147,-5.2191,-5.2267,-5.2285,-5.2329,-5.2326,-5.2343,-5.2437,-5.2476,-5.2542,-5.2569,-5.2567,-5.2681,-5.2663,-5.2638,-5.2585,-5.2687,-5.2727,-5.2744,-5.2523,-5.2522,-5.2521,-5.252,0,0,-5.2098,-5.217,-5.219,-5.2221,-5.2279,-5.2332,-5.2408,-5.2474,-5.251,-5.256,-5.2622,-5.2714,-5.2691,-5.2727,-5.273,-5.2781,-5.2883,-5.2749,-5.275,-5.277,-5.3008,-5.3025,-5.3044,-5.2873,-5.2877,-5.2879,-5.3003,0,-5.2219,-5.2352,-5.2361,-5.2481,-5.2544,-5.253,-5.2596,-5.2639,-5.2658,-5.2714,-5.2735,-5.2799,-5.2764,-5.2786,-5.2837,-5.286,-5.293,-5.2852,-5.2929,-5.2932,-5.2913,-5.3066,-5.3083,-5.3198,-5.3019,-5.3022,-5.3024,0,-5.2376,-5.2431,-5.2558,-5.2607,-5.2634,-5.2693,-5.2753,-5.2808,-5.2856,-5.2866,-5.2909,-5.2904,-5.2982,-5.293,-5.3036,-5.2982,-5.3015,-5.3032,-5.3036,-5.3041,-5.2981,-5.3071,-5.3235,-5.3251,-5.305,-5.3048,-5.3046,0,-5.2466,-5.2572,-5.2661,-5.2688,-5.2748,-5.279,-5.2817,-5.2862,-5.2901,-5.2955,-5.2979,-5.3042,-5.3075,-5.3123,-5.3135,-5.3097,-5.324,-5.319,-5.3249,-5.3248,-5.3276,-5.3273,-5.3444,-5.3304,-5.3304,-5.3303,-5.3303,0,-5.2598,-5.2676,-5.2702,-5.2757,-5.2843,-5.2854,-5.2938,-5.2963,-5.3004,-5.3062,-5.3055,-5.3109,-5.3124,-5.3182,-5.3192,-5.3277,-5.3293,-5.3302,-5.3303,-5.3301,-5.3299,-5.3319,-5.331,-5.3308,-5.3307,-5.3306,-5.3305,0,-5.2712,-5.2733,-5.2829,-5.2879,-5.2893,-5.2954,-5.2997,-5.3049,-5.3068,-5.3142,-5.316,-5.319,-5.3258,-5.3276,-5.3357,-5.3364,-5.3463,-5.3459,-5.3446,-5.3445,-5.3502,-5.3495,-5.3689,-5.3714,-5.356,-5.3562,-5.3563,0,-5.2792,-5.2852,-5.2909,-5.2947,-5.2976,-5.304,-5.3079,-5.3093,-5.3135,-5.3195,-5.324,-5.3307,-5.336,-5.3469,-5.3497,-5.3559,-5.3554,-5.3618,-5.3563,-5.3558,-5.3551,-5.3546,-5.3551,-5.3627,-5.3628,-5.363,-5.3631,0,-5.2933,-5.2941,-5.2999,-5.3061,-5.3109,-5.3159,-5.3206,-5.3239,-5.3259,-5.3306,-5.3376,-5.3418,-5.3501,-5.3567,-5.363,-5.3657,-5.3647,-5.3649,-5.3665,-5.3661,-5.365,-5.3654,-5.3471,-5.3643,-5.3642,-5.3641,-5.364,-5.364,-5.303,-5.3081,-5.313,-5.3195,-5.3232,-5.3277,-5.3328,-5.3355,-5.3413,-5.3482,-5.3487,-5.3562,-5.3609,-5.3693,-5.3724,-5.3782,-5.3763,-5.3787,-5.3793,-5.3798,-5.3801,-5.3644,-5.3794,-5.3794,-5.3794,-5.3793,-5.3793,0,-5.3167,-5.3198,-5.3258,-5.3325,-5.3376,-5.3365,-5.3417,-5.346,-5.3526,-5.3572,-5.3626,-5.3705,-5.377,-5.3804,-5.3868,-5.3908,-5.3905,-5.3924,-5.392,-5.3926,-5.3816,-5.3794,-5.3926,-5.3926,-5.3926,-5.3926,-5.3926,-5.3926,-5.3244,-5.333,-5.3344,-5.3449,-5.348,-5.3553,-5.3584,-5.3625,-5.3661,-5.3751,-5.3804,-5.3827,-5.3868,-5.3935,-5.3994,-5.4002,-5.4025,-5.4046,-5.4051,-5.3947,-5.3934,-5.392,-5.39,-5.4052,-5.4052,-5.4156,-5.4157,-5.4158]},{"header":{"parameterUnit":"m.s-1","parameterCategory":1,"la1":30.2991,"la2":30.254,"lo1":-89.0895,"lo2":-89.0444,"dy":0.0017,"dx":0.0017,"nx":28,"ny":28,"refTime":"2025-04-01T09:00:00:Z","depth":0,"parameterNumber":3,"parameterNumberName":"V-component_of_WINDS"},"data":[0,0,0,0,0,0,0,0,0,0,0,0,0,0,0,0,0,0,0,0,0,0,0,0,0,0,0,0,0,0,0,0,0,0,0,0,0,0,0,0,0,0,0,0,0,0,0,0,0,0,0,0,0,0,0,0,0,0,3.3708,3.3709,0,3.3814,3.3815,3.3816,3.3821,3.382,3.3818,3.3817,3.3922,3.3926,3.393,0,0,0,0,0,0,0,0,0,0,0,0,0,3.3507,3.3511,3.3708,3.3709,3.371,3.3814,3.3815,3.3817,3.3821,3.3819,3.3818,3.3817,3.3921,3.3926,3.393,0,0,0,0,0,0,0,0,0,0,0,0,0,3.3602,3.3512,3.3707,3.3725,3.3728,3.3813,3.3815,3.3817,3.3821,3.3819,3.3818,3.3816,3.3919,3.3925,3.3931,3.4005,0,0,3.3949,3.3952,0,0,0,0,0,0,0,0,3.3596,3.3609,3.3721,3.3724,3.3727,3.3802,3.3783,3.388,3.3822,3.3786,3.3817,3.3815,3.3884,3.3892,3.3916,3.401,3.4015,3.395,3.3953,3.3956,3.3957,0,0,0,0,0,0,0,3.359,3.3605,3.375,3.3723,3.3727,3.3727,3.3739,3.3801,3.3844,3.3789,3.3789,3.3802,3.3885,3.391,3.3919,3.4016,3.3949,3.3955,3.3958,3.3961,3.4178,3.418,0,0,0,0,0,0,3.358,3.3599,3.3746,3.3753,3.3656,3.3732,3.3745,3.378,3.3843,3.3851,3.3803,3.3802,3.3901,3.3912,3.3922,3.4015,3.3956,3.3961,3.3965,3.4176,3.4179,3.4181,0,0,0,0,0,0,3.3576,3.3593,3.3742,3.3676,3.3695,3.3738,3.3777,3.3783,3.3809,3.3854,3.3862,3.3822,3.39,3.3914,3.3985,3.4019,3.3964,3.3969,3.4173,3.4177,3.418,3.42,0,0,0,0,0,0,3.357,3.3592,3.3621,3.3677,3.3699,3.3804,3.3779,3.3787,3.382,3.3818,3.3874,3.3881,3.39,3.3976,3.3991,3.4026,3.3974,3.4171,3.4175,3.4179,3.4197,3.4204,3.421,0,0,0,0,0,3.3563,3.3621,3.3622,3.364,3.3736,3.3806,3.3818,3.384,3.3822,3.3852,3.3881,3.3879,3.4013,3.3984,3.4,3.4037,3.4169,3.4174,3.4179,3.4194,3.4202,3.4209,0,0,0,0,0,0,3.3566,3.3628,3.363,3.3708,3.3752,3.3806,3.3844,3.3848,3.3896,3.3893,3.3916,3.3928,3.4,3.4025,3.3992,3.4114,3.4089,3.4097,3.4094,3.4103,3.4109,3.4102,3.3979,0,0,0,0,0,3.3575,3.3628,3.3679,3.3743,3.3765,3.3801,3.3832,3.3845,3.389,3.3908,3.3943,3.3986,3.4038,3.4072,3.4122,3.42,3.4213,3.4234,3.424,3.4246,3.4253,3.4298,3.4309,3.4197,3.4197,3.4197,0,0,3.3596,3.3637,3.3668,3.3745,3.378,3.3833,3.3816,3.3873,3.3913,3.3916,3.3987,3.4014,3.4064,3.414,3.4174,3.4163,3.4287,3.4252,3.4256,3.426,3.4304,3.4315,3.4324,3.4201,3.42,3.42,0,0,3.3661,3.3697,3.3755,3.3791,3.3845,3.3869,3.3883,3.3938,3.3956,3.4028,3.4032,3.408,3.4168,3.4204,3.4234,3.4315,3.4316,3.433,3.4365,3.4409,3.4417,3.4425,3.4456,3.4466,3.4337,3.4338,3.4338,0,3.3679,3.3761,3.3784,3.3842,3.3876,3.3884,3.3943,3.3976,3.4044,3.4067,3.4053,3.4166,3.42,3.4286,3.4306,3.4329,3.4346,3.4324,3.4415,3.4423,3.443,3.446,3.4471,3.4339,3.4339,3.4339,3.4339,0,3.3782,3.3838,3.3879,3.3946,3.3984,3.4042,3.4074,3.411,3.412,3.4145,3.4218,3.4259,3.4319,3.434,3.4349,3.4427,3.4419,3.441,3.4385,3.4442,3.447,3.4481,3.4341,3.4341,3.434,3.434,0,0,3.3851,3.3932,3.3946,3.3978,3.4039,3.4083,3.4141,3.4201,3.4232,3.4279,3.4329,3.4405,3.4397,3.4431,3.4445,3.4483,3.4547,3.447,3.4471,3.4484,3.4637,3.4645,3.4657,3.4548,3.455,3.4552,3.4634,0,3.3924,3.403,3.4053,3.4144,3.4198,3.4207,3.4258,3.4301,3.4326,3.4375,3.4402,3.4456,3.4441,3.4463,3.4501,3.4531,3.4578,3.4525,3.4595,3.4597,3.4583,3.4672,3.4679,3.4755,3.4644,3.4646,3.4648,0,3.4023,3.4074,3.4171,3.4228,3.4251,3.4297,3.4355,3.4401,3.445,3.4465,3.4505,3.4515,3.4576,3.4549,3.4634,3.4598,3.4627,3.4647,3.465,3.4658,3.4626,3.4683,3.4779,3.4791,3.4665,3.4663,3.4662,0,3.4066,3.4159,3.423,3.4256,3.4323,3.4355,3.4384,3.4432,3.4467,3.4517,3.454,3.4596,3.4627,3.467,3.4695,3.4672,3.4779,3.4753,3.4794,3.4794,3.4817,3.4815,3.492,3.4834,3.4834,3.4834,3.4833,0,3.4146,3.4205,3.425,3.4294,3.4361,3.4387,3.4452,3.4481,3.4524,3.4573,3.4583,3.4629,3.4659,3.4709,3.4728,3.4797,3.481,3.4825,3.483,3.4825,3.4823,3.4845,3.4841,3.4837,3.4836,3.4835,3.4835,0,3.4205,3.4238,3.4316,3.4373,3.4389,3.4436,3.4486,3.4528,3.4554,3.4617,3.4633,3.4673,3.4733,3.4762,3.4835,3.4849,3.4927,3.4927,3.4911,3.4913,3.4953,3.495,3.5077,3.5096,3.4996,3.4997,3.4998,0,3.4255,3.4301,3.4365,3.4399,3.443,3.4485,3.4522,3.4549,3.4587,3.4647,3.4683,3.4743,3.4793,3.4888,3.4924,3.4981,3.4983,3.5024,3.4992,3.4986,3.4986,3.4983,3.4989,3.503,3.5031,3.5032,3.5032,0,3.434,3.4354,3.4407,3.4467,3.4511,3.4558,3.4605,3.4632,3.4667,3.4709,3.4771,3.481,3.4887,3.4947,3.5007,3.5036,3.5041,3.5042,3.5055,3.5051,3.5041,3.5049,3.4928,3.5039,3.5039,3.5038,3.5038,3.5037,3.4397,3.4439,3.4491,3.4551,3.4589,3.4633,3.4677,3.4709,3.4762,3.4828,3.484,3.4906,3.4956,3.5037,3.5068,3.512,3.5111,3.5129,3.5134,3.5138,3.5141,3.5032,3.5131,3.513,3.513,3.513,3.513,0,3.4484,3.4518,3.4573,3.4639,3.4686,3.4687,3.474,3.4779,3.4837,3.4883,3.4933,3.5005,3.5064,3.5105,3.5165,3.5199,3.5203,3.5214,3.5212,3.5219,3.5145,3.5129,3.521,3.521,3.521,3.521,3.521,3.521,3.4535,3.4608,3.4628,3.472,3.4754,3.482,3.485,3.4891,3.4928,3.5009,3.5059,3.5085,3.513,3.5193,3.5248,3.5258,3.528,3.5292,3.5302,3.5233,3.5224,3.5216,3.5201,3.5296,3.5296,3.5372,3.5373,3.5374]}]]